| time (UTC) | temp F | wind direction | speed MPH | gust MPH | rain 1hr in | rain 24hr in | rain mn in | humidity % | barometer mb |
| 20260509200556 | 49 | 284 | 0.0 | 0.0 | 0.00 | 0.00 | 0.00 | 79 | 1019.3 |
| 20260509200057 | 49 | 284 | 0.0 | 0.0 | 0.00 | 0.00 | 0.00 | 79 | 1019.3 |
| 20260509195557 | 49 | 284 | 0.0 | 0.0 | 0.00 | 0.00 | 0.00 | 78 | 1019.3 |
| 20260509195056 | 49 | 284 | 0.0 | 0.0 | 0.00 | 0.00 | 0.00 | 78 | 1019.3 |
| 20260509194558 | 49 | 284 | 0.0 | 0.0 | 0.00 | 0.00 | 0.00 | 78 | 1019.3 |
| 20260509194058 | 50 | 284 | 0.0 | 0.0 | 0.00 | 0.00 | 0.00 | 77 | 1019.3 |
| 20260509193657 | 50 | 284 | 0.0 | 0.0 | 0.00 | 0.00 | 0.00 | 77 | 1019.3 |
| 20260509193057 | 50 | 284 | 0.0 | 0.0 | 0.00 | 0.00 | 0.00 | 76 | 1019.3 |
| 20260509192554 | 50 | 284 | 0.0 | 0.0 | 0.00 | 0.00 | 0.00 | 75 | 1019.4 |
| 20260509192054 | 51 | 284 | 0.0 | 0.0 | 0.00 | 0.00 | 0.00 | 74 | 1019.3 |
| 20260509191603 | 51 | 284 | 0.0 | 0.0 | 0.00 | 0.00 | 0.00 | 73 | 1019.3 |
| 20260509191058 | 52 | 284 | 0.0 | 0.0 | 0.00 | 0.00 | 0.00 | 72 | 1019.3 |
| 20260509190553 | 52 | 284 | 0.0 | 0.0 | 0.00 | 0.00 | 0.00 | 71 | 1019.2 |
| 20260509190059 | 53 | 284 | 0.0 | 0.0 | 0.00 | 0.00 | 0.00 | 70 | 1019.2 |
| 20260509185554 | 54 | 284 | 0.0 | 0.0 | 0.00 | 0.00 | 0.00 | 68 | 1019.2 |
| 20260509185053 | 54 | 284 | 0.0 | 0.0 | 0.00 | 0.00 | 0.00 | 67 | 1019.1 |
| 20260509184553 | 55 | 284 | 0.0 | 0.0 | 0.00 | 0.00 | 0.00 | 66 | 1019.1 |
| 20260509184053 | 55 | 284 | 0.0 | 0.0 | 0.00 | 0.00 | 0.00 | 65 | 1019.1 |
| 20260509183553 | 56 | 284 | 0.0 | 0.0 | 0.00 | 0.00 | 0.00 | 63 | 1019.0 |
| 20260509183053 | 56 | 284 | 0.0 | 0.0 | 0.00 | 0.00 | 0.00 | 63 | 1019.0 |
| 20260509181048 | 58 | 284 | 0.0 | 0.0 | 0.00 | 0.00 | 0.00 | 59 | 1019.0 |
| 20260509181023 | 58 | 284 | 0.0 | 0.0 | 0.00 | 0.00 | 0.00 | 58 | 1019.0 |
| 20260509180047 | 59 | 284 | 0.0 | 0.0 | 0.00 | 0.00 | 0.00 | 56 | 1019.0 |
| 20260509175547 | 60 | 284 | 0.0 | 0.0 | 0.00 | 0.00 | 0.00 | 56 | 1018.9 |
| 20260509173543 | 60 | 282 | 2.0 | 9.0 | 0.00 | 0.00 | 0.00 | 54 | 1018.9 |
| 20260509172542 | 61 | 302 | 1.0 | 6.0 | 0.00 | 0.00 | 0.00 | 54 | 1018.8 |
| 20260509172042 | 60 | 310 | 0.0 | 6.0 | 0.00 | 0.00 | 0.00 | 54 | 1018.8 |
| 20260509171550 | 60 | 311 | 2.0 | 8.0 | 0.00 | 0.00 | 0.00 | 53 | 1018.9 |
| 20260509171041 | 60 | 312 | 0.0 | 8.0 | 0.00 | 0.00 | 0.00 | 54 | 1018.8 |
| 20260509170542 | 61 | 294 | 4.0 | 10.0 | 0.00 | 0.00 | 0.00 | 52 | 1018.8 |
| 20260509164537 | 61 | 315 | 6.0 | 13.0 | 0.00 | 0.00 | 0.00 | 53 | 1018.8 |
| 20260509162533 | 61 | 350 | 0.0 | 11.0 | 0.00 | 0.00 | 0.00 | 52 | 1018.9 |
| 20260509162131 | 62 | 297 | 5.0 | 15.0 | 0.00 | 0.00 | 0.00 | 51 | 1018.9 |
| 20260509154526 | 62 | 339 | 8.0 | 14.0 | 0.00 | 0.00 | 0.00 | 51 | 1019.1 |
| 20260509154022 | 62 | 65 | 0.0 | 5.0 | 0.00 | 0.00 | 0.00 | 52 | 1019.2 |
| 20260509153548 | 62 | 34 | 2.0 | 9.0 | 0.00 | 0.00 | 0.00 | 52 | 1019.2 |
| 20260509153121 | 61 | 360 | 4.0 | 11.0 | 0.00 | 0.00 | 0.00 | 52 | 1019.2 |
| 20260509152020 | 60 | 348 | 2.0 | 12.0 | 0.00 | 0.00 | 0.00 | 54 | 1019.3 |
| 20260509151520 | 60 | 344 | 5.0 | 12.0 | 0.00 | 0.00 | 0.00 | 54 | 1019.2 |
| 20260509151019 | 60 | 336 | 0.0 | 0.0 | 0.00 | 0.00 | 0.00 | 53 | 1019.3 |
| 20260509150519 | 61 | 336 | 0.0 | 0.0 | 0.00 | 0.00 | 0.00 | 52 | 1019.4 |
| 20260509144509 | 63 | 355 | 8.0 | 15.0 | 0.00 | 0.00 | 0.00 | 52 | 1019.3 |
| 20260509144005 | 61 | 250 | 0.0 | 7.0 | 0.00 | 0.00 | 0.00 | 51 | 1019.4 |
| 20260509143502 | 61 | 73 | 2.0 | 11.0 | 0.00 | 0.00 | 0.00 | 52 | 1019.4 |
| 20260509143005 | 62 | 133 | 3.0 | 17.0 | 0.00 | 0.00 | 0.00 | 51 | 1019.4 |
| 20260509135048 | 60 | 334 | 3.0 | 11.0 | 0.00 | 0.00 | 0.00 | 54 | 1019.6 |
| 20260509134552 | 60 | 329 | 5.0 | 11.0 | 0.00 | 0.00 | 0.00 | 54 | 1019.5 |
| 20260509132542 | 60 | 32 | 5.0 | 13.0 | 0.00 | 0.00 | 0.00 | 55 | 1019.6 |
| 20260509132041 | 60 | 13 | 4.0 | 17.0 | 0.00 | 0.00 | 0.00 | 56 | 1019.7 |
| 20260509130539 | 59 | 77 | 3.0 | 15.0 | 0.00 | 0.00 | 0.00 | 56 | 1019.8 |
| 20260509130040 | 59 | 116 | 5.0 | 15.0 | 0.00 | 0.00 | 0.00 | 58 | 1019.8 |
| 20260509125539 | 58 | 117 | 5.0 | 18.0 | 0.00 | 0.00 | 0.00 | 57 | 1019.8 |
| 20260509122533 | 58 | 34 | 10.0 | 18.0 | 0.00 | 0.00 | 0.00 | 59 | 1020.2 |
| 20260509122033 | 57 | 40 | 7.0 | 20.0 | 0.00 | 0.00 | 0.00 | 60 | 1020.1 |
| 20260509121548 | 57 | 37 | 9.0 | 20.0 | 0.00 | 0.00 | 0.00 | 61 | 1020.2 |
| 20260509121034 | 57 | 145 | 5.0 | 17.0 | 0.00 | 0.00 | 0.00 | 62 | 1020.3 |
| 20260509120536 | 57 | 349 | 8.0 | 17.0 | 0.00 | 0.00 | 0.00 | 64 | 1020.3 |
| 20260509120036 | 56 | 57 | 6.0 | 17.0 | 0.00 | 0.00 | 0.00 | 63 | 1020.3 |
| 20260509115533 | 57 | 69 | 4.0 | 20.0 | 0.00 | 0.00 | 0.00 | 63 | 1020.3 |
| 20260509115033 | 57 | 61 | 11.0 | 20.0 | 0.00 | 0.00 | 0.00 | 61 | 1020.4 |
| 20260509114534 | 58 | 42 | 7.0 | 16.0 | 0.00 | 0.00 | 0.00 | 59 | 1020.3 |
| 20260509114133 | 59 | 51 | 5.0 | 17.0 | 0.00 | 0.00 | 0.00 | 59 | 1020.2 |
| 20260509113534 | 58 | 34 | 10.0 | 17.0 | 0.00 | 0.00 | 0.00 | 60 | 1020.3 |
| 20260509113031 | 58 | 40 | 1.0 | 23.0 | 0.00 | 0.00 | 0.00 | 60 | 1020.2 |
| 20260509112534 | 58 | 313 | 4.0 | 23.0 | 0.00 | 0.00 | 0.00 | 60 | 1020.3 |
| 20260509112030 | 59 | 80 | 2.0 | 11.0 | 0.00 | 0.00 | 0.00 | 63 | 1020.4 |
| 20260509111529 | 58 | 144 | 4.0 | 11.0 | 0.00 | 0.00 | 0.00 | 66 | 1020.4 |
| 20260509111028 | 59 | 118 | 4.0 | 11.0 | 0.00 | 0.00 | 0.00 | 66 | 1020.4 |
| 20260509110526 | 56 | 329 | 4.0 | 9.0 | 0.00 | 0.00 | 0.00 | 68 | 1020.5 |
| 20260509110028 | 54 | 148 | 0.0 | 13.0 | 0.00 | 0.00 | 0.00 | 72 | 1020.5 |
| 20260509105525 | 55 | 123 | 4.0 | 13.0 | 0.00 | 0.00 | 0.00 | 72 | 1020.6 |
| 20260509105023 | 55 | 49 | 1.0 | 8.0 | 0.00 | 0.00 | 0.00 | 74 | 1020.6 |
| 20260509104522 | 53 | 39 | 2.0 | 6.0 | 0.00 | 0.00 | 0.00 | 78 | 1020.7 |
| 20260509104024 | 52 | 44 | 0.0 | 14.0 | 0.00 | 0.00 | 0.00 | 78 | 1020.7 |
| 20260509103521 | 52 | 5 | 1.0 | 14.0 | 0.00 | 0.00 | 0.00 | 78 | 1020.7 |
| 20260509103021 | 52 | 67 | 2.0 | 12.0 | 0.00 | 0.00 | 0.00 | 79 | 1020.6 |
| 20260509102521 | 52 | 38 | 4.0 | 12.0 | 0.00 | 0.00 | 0.00 | 80 | 1020.7 |
| 20260509102020 | 51 | 56 | 2.0 | 19.0 | 0.00 | 0.00 | 0.00 | 81 | 1020.6 |
| 20260509101523 | 51 | 9 | 3.0 | 13.0 | 0.00 | 0.00 | 0.00 | 80 | 1020.7 |
| 20260509101021 | 51 | 42 | 2.0 | 13.0 | 0.00 | 0.00 | 0.00 | 81 | 1020.7 |
| 20260509100522 | 51 | 40 | 4.0 | 13.0 | 0.00 | 0.00 | 0.00 | 81 | 1020.7 |
| 20260509100024 | 51 | 44 | 5.0 | 15.0 | 0.00 | 0.00 | 0.00 | 81 | 1020.7 |
| 20260509095519 | 51 | 9 | 1.0 | 17.0 | 0.00 | 0.00 | 0.00 | 81 | 1020.7 |
| 20260509095019 | 51 | 30 | 6.0 | 17.0 | 0.00 | 0.00 | 0.00 | 80 | 1020.7 |
| 20260509094519 | 51 | 82 | 6.0 | 17.0 | 0.00 | 0.00 | 0.00 | 80 | 1020.6 |
| 20260509094017 | 52 | 5 | 6.0 | 16.0 | 0.00 | 0.00 | 0.00 | 81 | 1020.6 |
| 20260509093618 | 52 | 24 | 5.0 | 14.0 | 0.00 | 0.00 | 0.00 | 81 | 1020.5 |
| 20260509093018 | 52 | 25 | 4.0 | 14.0 | 0.00 | 0.00 | 0.00 | 81 | 1020.5 |
| 20260509092516 | 52 | 337 | 5.0 | 18.0 | 0.00 | 0.00 | 0.00 | 80 | 1020.4 |
| 20260509092016 | 52 | 56 | 8.0 | 18.0 | 0.00 | 0.00 | 0.00 | 81 | 1020.4 |
| 20260509091515 | 52 | 360 | 3.0 | 15.0 | 0.00 | 0.00 | 0.00 | 83 | 1020.4 |
| 20260509091014 | 51 | 355 | 4.0 | 15.0 | 0.00 | 0.00 | 0.00 | 84 | 1020.3 |
| 20260509090513 | 50 | 360 | 5.0 | 15.0 | 0.00 | 0.00 | 0.00 | 85 | 1020.4 |
| 20260509090013 | 50 | 5 | 5.0 | 18.0 | 0.00 | 0.00 | 0.00 | 85 | 1020.4 |
| 20260509085513 | 50 | 355 | 10.0 | 19.0 | 0.00 | 0.00 | 0.00 | 84 | 1020.3 |
| 20260509085011 | 50 | 5 | 12.0 | 19.0 | 0.00 | 0.00 | 0.00 | 85 | 1020.4 |
| 20260509084514 | 50 | 350 | 4.0 | 13.0 | 0.00 | 0.00 | 0.00 | 85 | 1020.4 |
| 20260509084010 | 50 | 355 | 5.0 | 16.0 | 0.00 | 0.00 | 0.00 | 85 | 1020.3 |
| 20260509083509 | 50 | 5 | 7.0 | 22.0 | 0.00 | 0.00 | 0.00 | 85 | 1020.3 |
| 20260509083009 | 50 | 39 | 10.0 | 22.0 | 0.00 | 0.00 | 0.00 | 85 | 1020.3 |
| 20260509082510 | 50 | 316 | 10.0 | 18.0 | 0.00 | 0.00 | 0.00 | 84 | 1020.3 |
| 20260509082008 | 51 | 360 | 5.0 | 15.0 | 0.00 | 0.00 | 0.00 | 85 | 1020.2 |
| 20260509081508 | 50 | 5 | 9.0 | 15.0 | 0.00 | 0.00 | 0.00 | 85 | 1020.1 |
| 20260509081008 | 51 | 360 | 4.0 | 11.0 | 0.00 | 0.00 | 0.00 | 85 | 1020.1 |
| 20260509080506 | 50 | 323 | 1.0 | 15.0 | 0.00 | 0.00 | 0.00 | 87 | 1020.1 |
| 20260509080005 | 50 | 18 | 6.0 | 15.0 | 0.00 | 0.00 | 0.00 | 86 | 1020.1 |
| 20260509075503 | 49 | 333 | 3.0 | 13.0 | 0.00 | 0.00 | 0.00 | 86 | 1020.1 |
| 20260509075003 | 49 | 346 | 7.0 | 13.0 | 0.00 | 0.00 | 0.00 | 86 | 1020.1 |
| 20260509074503 | 49 | 355 | 4.0 | 13.0 | 0.00 | 0.00 | 0.00 | 87 | 1020.1 |
| 20260509074002 | 49 | 355 | 7.0 | 14.0 | 0.00 | 0.00 | 0.00 | 86 | 1020.1 |
| 20260509073503 | 49 | 345 | 9.0 | 17.0 | 0.00 | 0.00 | 0.00 | 86 | 1020.0 |
| 20260509072501 | 50 | 360 | 6.0 | 15.0 | 0.00 | 0.00 | 0.00 | 85 | 1020.0 |
| 20260509072100 | 50 | 317 | 1.0 | 15.0 | 0.00 | 0.00 | 0.00 | 86 | 1019.9 |
| 20260509071558 | 50 | 360 | 5.0 | 17.0 | 0.00 | 0.00 | 0.00 | 86 | 1019.9 |
| 20260509071057 | 50 | 346 | 8.0 | 16.0 | 0.00 | 0.00 | 0.00 | 86 | 1019.9 |
| 20260509070556 | 50 | 11 | 8.0 | 16.0 | 0.00 | 0.00 | 0.00 | 86 | 1019.8 |
| 20260509070057 | 50 | 346 | 6.0 | 15.0 | 0.00 | 0.00 | 0.00 | 86 | 1019.7 |
| 20260509065555 | 50 | 9 | 7.0 | 15.0 | 0.00 | 0.00 | 0.00 | 87 | 1019.7 |
| 20260509065054 | 49 | 22 | 8.0 | 15.0 | 0.00 | 0.00 | 0.00 | 88 | 1019.8 |
| 20260509064553 | 49 | 355 | 3.0 | 11.0 | 0.00 | 0.00 | 0.00 | 88 | 1019.8 |
| 20260509064051 | 49 | 9 | 3.0 | 12.0 | 0.00 | 0.00 | 0.00 | 88 | 1019.8 |
| 20260509063552 | 49 | 360 | 8.0 | 11.0 | 0.00 | 0.00 | 0.00 | 87 | 1019.8 |
| 20260509063102 | 49 | 333 | 4.0 | 13.0 | 0.00 | 0.00 | 0.00 | 88 | 1019.8 |
| 20260509062551 | 48 | 338 | 6.0 | 13.0 | 0.00 | 0.00 | 0.00 | 87 | 1019.8 |
| 20260509062051 | 49 | 340 | 7.0 | 13.0 | 0.00 | 0.00 | 0.00 | 87 | 1019.7 |
| 20260509061551 | 49 | 327 | 4.0 | 11.0 | 0.00 | 0.00 | 0.00 | 87 | 1019.7 |
| 20260509061050 | 49 | 355 | 2.0 | 11.0 | 0.00 | 0.00 | 0.00 | 87 | 1019.6 |
| 20260509060550 | 49 | 355 | 3.0 | 9.0 | 0.00 | 0.00 | 0.00 | 88 | 1019.7 |
| 20260509060058 | 48 | 355 | 1.0 | 10.0 | 0.00 | 0.00 | 0.00 | 87 | 1019.7 |
| 20260509055553 | 48 | 355 | 3.0 | 13.0 | 0.00 | 0.00 | 0.00 | 87 | 1019.6 |
| 20260509055049 | 48 | 337 | 5.0 | 17.0 | 0.00 | 0.00 | 0.00 | 87 | 1019.6 |
| 20260509054549 | 48 | 297 | 9.0 | 17.0 | 0.00 | 0.00 | 0.00 | 87 | 1019.6 |
| 20260509053547 | 48 | 11 | 6.0 | 16.0 | 0.00 | 0.00 | 0.00 | 88 | 1019.5 |
| 20260509052645 | 48 | 323 | 7.0 | 13.0 | 0.00 | 0.00 | 0.00 | 88 | 1019.5 |
| 20260509052042 | 48 | 355 | 6.0 | 13.0 | 0.00 | 0.00 | 0.00 | 89 | 1019.5 |
| 20260509051543 | 48 | 337 | 5.0 | 13.0 | 0.00 | 0.00 | 0.00 | 89 | 1019.5 |
| 20260509051042 | 48 | 344 | 4.0 | 13.0 | 0.00 | 0.00 | 0.00 | 90 | 1019.5 |
| 20260509050544 | 48 | 17 | 4.0 | 15.0 | 0.00 | 0.00 | 0.00 | 90 | 1019.5 |
| 20260509050041 | 47 | 5 | 5.0 | 15.0 | 0.00 | 0.00 | 0.00 | 90 | 1019.5 |
| 20260509045539 | 48 | 333 | 4.0 | 12.0 | 0.00 | 0.00 | 0.00 | 90 | 1019.5 |
| 20260509045038 | 47 | 18 | 3.0 | 12.0 | 0.00 | 0.00 | 0.00 | 91 | 1019.5 |
| 20260509044537 | 47 | 5 | 5.0 | 13.0 | 0.00 | 0.00 | 0.00 | 91 | 1019.4 |
| 20260509044037 | 47 | 348 | 2.0 | 12.0 | 0.00 | 0.00 | 0.00 | 91 | 1019.3 |
| 20260509043535 | 47 | 355 | 3.0 | 12.0 | 0.00 | 0.00 | 0.00 | 92 | 1019.3 |
| 20260509043043 | 47 | 5 | 4.0 | 12.0 | 0.00 | 0.00 | 0.00 | 92 | 1019.3 |
| 20260509042533 | 47 | 360 | 7.0 | 13.0 | 0.00 | 0.00 | 0.00 | 91 | 1019.3 |
| 20260509042036 | 47 | 344 | 8.0 | 13.0 | 0.00 | 0.00 | 0.00 | 92 | 1019.3 |
| 20260509041540 | 47 | 13 | 3.0 | 10.0 | 0.00 | 0.00 | 0.00 | 92 | 1019.3 |
| 20260509041033 | 47 | 360 | 2.0 | 13.0 | 0.00 | 0.00 | 0.00 | 91 | 1019.3 |
| 20260509040528 | 47 | 349 | 5.0 | 11.0 | 0.00 | 0.00 | 0.00 | 91 | 1019.2 |
| 20260509040029 | 47 | 355 | 0.0 | 0.0 | 0.00 | 0.00 | 0.00 | 92 | 1019.2 |
| 20260509035527 | 47 | 355 | 0.0 | 1.0 | 0.00 | 0.00 | 0.00 | 91 | 1019.3 |
| 20260509035026 | 47 | 5 | 0.0 | 11.0 | 0.00 | 0.00 | 0.00 | 91 | 1019.3 |
| 20260509034526 | 47 | 339 | 6.0 | 11.0 | 0.00 | 0.00 | 0.00 | 91 | 1019.2 |
| 20260509034025 | 47 | 310 | 5.0 | 10.0 | 0.00 | 0.00 | 0.00 | 91 | 1019.2 |
| 20260509033524 | 47 | 336 | 3.0 | 10.0 | 0.00 | 0.00 | 0.00 | 91 | 1019.2 |
| 20260509033023 | 47 | 355 | 0.0 | 0.0 | 0.00 | 0.00 | 0.00 | 91 | 1019.2 |
| 20260509032522 | 47 | 13 | 0.0 | 0.0 | 0.00 | 0.00 | 0.00 | 91 | 1019.2 |
| 20260509031520 | 47 | 340 | 0.0 | 0.0 | 0.00 | 0.00 | 0.00 | 91 | 1019.2 |
| 20260509031020 | 47 | 5 | 0.0 | 0.0 | 0.00 | 0.00 | 0.00 | 91 | 1019.2 |
| 20260509030520 | 47 | 9 | 0.0 | 0.0 | 0.00 | 0.00 | 0.00 | 91 | 1019.2 |
| 20260509030018 | 47 | 5 | 0.0 | 0.0 | 0.00 | 0.00 | 0.00 | 91 | 1019.2 |
| 20260509025519 | 47 | 355 | 0.0 | 0.0 | 0.00 | 0.00 | 0.00 | 91 | 1019.2 |
| 20260509025018 | 47 | 5 | 0.0 | 0.0 | 0.00 | 0.00 | 0.00 | 91 | 1019.2 |
| 20260509024519 | 47 | 5 | 0.0 | 0.0 | 0.00 | 0.00 | 0.00 | 91 | 1019.3 |
| 20260509024019 | 48 | 5 | 0.0 | 0.0 | 0.00 | 0.00 | 0.00 | 91 | 1019.2 |
| 20260509023519 | 48 | 14 | 0.0 | 0.0 | 0.00 | 0.00 | 0.00 | 91 | 1019.3 |
| 20260509023018 | 48 | 30 | 0.0 | 0.0 | 0.00 | 0.00 | 0.00 | 91 | 1019.2 |
| 20260509022518 | 48 | 5 | 0.0 | 0.0 | 0.00 | 0.00 | 0.00 | 91 | 1019.2 |
| 20260509022017 | 48 | 5 | 0.0 | 0.0 | 0.00 | 0.00 | 0.00 | 91 | 1019.3 |
| 20260509021517 | 48 | 5 | 0.0 | 0.0 | 0.00 | 0.00 | 0.00 | 91 | 1019.3 |
| 20260509021017 | 48 | 5 | 0.0 | 0.0 | 0.00 | 0.00 | 0.00 | 91 | 1019.3 |
| 20260509020516 | 48 | 5 | 0.0 | 0.0 | 0.00 | 0.00 | 0.00 | 91 | 1019.4 |
| 20260509020018 | 48 | 5 | 0.0 | 0.0 | 0.00 | 0.00 | 0.00 | 90 | 1019.3 |
| 20260509015517 | 48 | 5 | 0.0 | 0.0 | 0.00 | 0.00 | 0.00 | 91 | 1019.3 |
| 20260509015016 | 48 | 12 | 0.0 | 0.0 | 0.00 | 0.00 | 0.00 | 91 | 1019.3 |
| 20260509014514 | 48 | 5 | 0.0 | 0.0 | 0.00 | 0.00 | 0.00 | 91 | 1019.3 |
| 20260509014018 | 48 | 5 | 0.0 | 0.0 | 0.00 | 0.00 | 0.00 | 91 | 1019.2 |
| 20260509013515 | 48 | 5 | 0.0 | 0.0 | 0.00 | 0.00 | 0.00 | 91 | 1019.2 |
| 20260509013014 | 48 | 5 | 0.0 | 0.0 | 0.00 | 0.00 | 0.00 | 91 | 1019.2 |
| 20260509012514 | 48 | 5 | 0.0 | 0.0 | 0.00 | 0.00 | 0.00 | 91 | 1019.2 |
| 20260509012013 | 48 | 5 | 0.0 | 0.0 | 0.00 | 0.00 | 0.00 | 90 | 1019.2 |
| 20260509011012 | 49 | 9 | 0.0 | 0.0 | 0.00 | 0.00 | 0.00 | 91 | 1019.2 |
| 20260509010512 | 49 | 10 | 0.0 | 0.0 | 0.00 | 0.00 | 0.00 | 91 | 1019.2 |
| 20260509010033 | 49 | 30 | 0.0 | 0.0 | 0.00 | 0.00 | 0.00 | 90 | 1019.2 |
| 20260509005512 | 49 | 355 | 0.0 | 0.0 | 0.00 | 0.00 | 0.00 | 91 | 1019.2 |
| 20260509005013 | 49 | 355 | 0.0 | 0.0 | 0.00 | 0.00 | 0.00 | 90 | 1019.2 |
| 20260509004522 | 49 | 355 | 0.0 | 0.0 | 0.00 | 0.00 | 0.00 | 90 | 1019.2 |
| 20260509004011 | 49 | 355 | 0.0 | 0.0 | 0.00 | 0.00 | 0.00 | 90 | 1019.2 |
| 20260509003510 | 49 | 355 | 0.0 | 0.0 | 0.00 | 0.00 | 0.00 | 90 | 1019.2 |
| 20260509003010 | 49 | 355 | 0.0 | 0.0 | 0.00 | 0.00 | 0.00 | 90 | 1019.2 |
| 20260509002510 | 49 | 355 | 0.0 | 0.0 | 0.00 | 0.00 | 0.00 | 90 | 1019.2 |
| 20260509002009 | 49 | 355 | 0.0 | 0.0 | 0.00 | 0.00 | 0.00 | 90 | 1019.3 |
| 20260509001508 | 49 | 355 | 0.0 | 0.0 | 0.00 | 0.00 | 0.00 | 90 | 1019.3 |
| 20260509001010 | 49 | 355 | 0.0 | 0.0 | 0.00 | 0.00 | 0.00 | 90 | 1019.3 |
| 20260509000508 | 49 | 322 | 0.0 | 0.0 | 0.00 | 0.00 | 0.00 | 90 | 1019.3 |
| 20260509000009 | 49 | 322 | 0.0 | 0.0 | 0.00 | 0.00 | 0.00 | 90 | 1019.3 |
| 20260508235508 | 49 | 322 | 0.0 | 0.0 | 0.00 | 0.00 | 0.00 | 90 | 1019.3 |
| 20260508235008 | 49 | 289 | 0.0 | 0.0 | 0.00 | 0.00 | 0.00 | 90 | 1019.3 |
| 20260508234519 | 49 | 313 | 0.0 | 0.0 | 0.00 | 0.00 | 0.00 | 90 | 1019.3 |
| 20260508234008 | 49 | 5 | 0.0 | 0.0 | 0.00 | 0.00 | 0.00 | 90 | 1019.3 |
| 20260508233507 | 49 | 5 | 0.0 | 0.0 | 0.00 | 0.00 | 0.00 | 90 | 1019.3 |
| 20260508233013 | 49 | 5 | 0.0 | 0.0 | 0.00 | 0.00 | 0.00 | 90 | 1019.3 |
| 20260508232506 | 49 | 5 | 0.0 | 0.0 | 0.00 | 0.00 | 0.00 | 90 | 1019.3 |
| 20260508232006 | 49 | 5 | 0.0 | 0.0 | 0.00 | 0.00 | 0.00 | 90 | 1019.2 |
| 20260508231505 | 49 | 5 | 0.0 | 0.0 | 0.00 | 0.00 | 0.00 | 90 | 1019.2 |
| 20260508231006 | 49 | 5 | 0.0 | 0.0 | 0.00 | 0.00 | 0.00 | 90 | 1019.3 |
| 20260508230505 | 49 | 5 | 0.0 | 0.0 | 0.00 | 0.00 | 0.00 | 90 | 1019.3 |
| 20260508230006 | 49 | 5 | 0.0 | 0.0 | 0.00 | 0.00 | 0.00 | 90 | 1019.3 |
| 20260508225506 | 49 | 5 | 0.0 | 0.0 | 0.00 | 0.00 | 0.00 | 90 | 1019.3 |
| 20260508225006 | 49 | 5 | 0.0 | 0.0 | 0.00 | 0.00 | 0.00 | 90 | 1019.3 |
| 20260508224506 | 49 | 5 | 0.0 | 0.0 | 0.00 | 0.00 | 0.00 | 90 | 1019.3 |
| 20260508224005 | 49 | 5 | 0.0 | 0.0 | 0.00 | 0.00 | 0.00 | 90 | 1019.3 |
| 20260508223506 | 49 | 5 | 0.0 | 0.0 | 0.00 | 0.00 | 0.00 | 90 | 1019.4 |
| 20260508223005 | 49 | 5 | 0.0 | 0.0 | 0.00 | 0.00 | 0.00 | 90 | 1019.3 |
| 20260508222507 | 49 | 5 | 0.0 | 0.0 | 0.00 | 0.00 | 0.00 | 90 | 1019.4 |
| 20260508222003 | 49 | 5 | 0.0 | 0.0 | 0.00 | 0.00 | 0.00 | 90 | 1019.3 |
| 20260508221503 | 49 | 5 | 0.0 | 0.0 | 0.00 | 0.00 | 0.00 | 90 | 1019.3 |
| 20260508221103 | 49 | 5 | 0.0 | 0.0 | 0.00 | 0.00 | 0.00 | 90 | 1019.2 |
| 20260508220504 | 49 | 5 | 0.0 | 0.0 | 0.00 | 0.00 | 0.00 | 90 | 1019.3 |
| 20260508220001 | 49 | 5 | 0.0 | 0.0 | 0.00 | 0.00 | 0.00 | 90 | 1019.3 |
| 20260508215502 | 49 | 5 | 0.0 | 0.0 | 0.00 | 0.00 | 0.00 | 90 | 1019.3 |
| 20260508215002 | 49 | 5 | 0.0 | 0.0 | 0.00 | 0.00 | 0.00 | 90 | 1019.3 |
| 20260508214502 | 49 | 5 | 0.0 | 0.0 | 0.00 | 0.00 | 0.00 | 90 | 1019.3 |
| 20260508214003 | 49 | 5 | 0.0 | 0.0 | 0.00 | 0.00 | 0.00 | 90 | 1019.3 |
| 20260508213502 | 49 | 5 | 0.0 | 0.0 | 0.00 | 0.00 | 0.00 | 89 | 1019.3 |
| 20260508213003 | 49 | 5 | 0.0 | 0.0 | 0.00 | 0.00 | 0.00 | 89 | 1019.4 |
| 20260508212501 | 49 | 5 | 0.0 | 0.0 | 0.00 | 0.00 | 0.00 | 89 | 1019.5 |
| 20260508212102 | 49 | 5 | 0.0 | 0.0 | 0.00 | 0.00 | 0.00 | 89 | 1019.4 |
| 20260508211600 | 49 | 5 | 0.0 | 0.0 | 0.00 | 0.00 | 0.00 | 89 | 1019.4 |
| 20260508211100 | 49 | 5 | 0.0 | 0.0 | 0.00 | 0.00 | 0.00 | 89 | 1019.5 |
| 20260508210602 | 49 | 5 | 0.0 | 0.0 | 0.00 | 0.00 | 0.00 | 89 | 1019.4 |
| 20260508210108 | 49 | 5 | 0.0 | 0.0 | 0.00 | 0.00 | 0.00 | 89 | 1019.5 |
| 20260508205600 | 49 | 5 | 0.0 | 0.0 | 0.00 | 0.00 | 0.00 | 88 | 1019.5 |
| 20260508205100 | 49 | 5 | 0.0 | 0.0 | 0.00 | 0.00 | 0.00 | 88 | 1019.5 |
| 20260508204600 | 49 | 5 | 0.0 | 0.0 | 0.00 | 0.00 | 0.00 | 88 | 1019.5 |
| 20260508204059 | 49 | 5 | 0.0 | 0.0 | 0.00 | 0.00 | 0.00 | 88 | 1019.5 |
| 20260508203600 | 49 | 5 | 0.0 | 0.0 | 0.00 | 0.00 | 0.00 | 88 | 1019.4 |
| 20260508203104 | 49 | 5 | 0.0 | 0.0 | 0.00 | 0.00 | 0.00 | 87 | 1019.4 |
| 20260508202559 | 50 | 5 | 0.0 | 0.0 | 0.00 | 0.00 | 0.00 | 87 | 1019.5 |
| 20260508202058 | 50 | 5 | 0.0 | 0.0 | 0.00 | 0.00 | 0.00 | 87 | 1019.5 |
| 20260508201558 | 50 | 5 | 0.0 | 0.0 | 0.00 | 0.00 | 0.00 | 87 | 1019.5 |
| 20260508201057 | 50 | 5 | 0.0 | 0.0 | 0.00 | 0.00 | 0.00 | 87 | 1019.4 |